Overview Statistics Trail Chart Weather Telemetry Raw packets
 

This is the latest recevied weather packets stored in our database for station/object HG8GL-6. If no packets are shown the sender has not sent any weather packets the latest 10 day(s).

<< 28 29 30 31 32 33 34 >>
Time Temp. Humidity Pressure Rain* Wind** Luminosity Snow
1788224514 20.56° C 77% 1018 hPa 0.25 mm - - -
1788223884 20.56° C 77% 1018 hPa 0.25 mm - - -
1788223254 20.56° C 78% 1018 hPa 0.51 mm - - -
1788222624 20.56° C 74% 1018 hPa 1.27 mm - - -
1788222024 20.56° C 72% 1018 hPa 1.27 mm - - -
1788221394 21.11° C 70% 1018 hPa 1.27 mm - - -
1788220764 21.67° C 69% 1018 hPa 1.27 mm - - -
1788220164 22.22° C 64% 1018 hPa 1.27 mm - - -
1788219534 24.44° C 48% 1014 hPa 0.25 mm - - -
1788218934 25° C 42% 1014 hPa 0 mm - - -
1788218304 24.44° C 43% 1013 hPa 0 mm - - -
1788217704 24.44° C 43% 1014 hPa 0 mm - - -
1788217074 24.44° C 43% 1014 hPa 0 mm - - -
1788216444 24.44° C 43% 1014 hPa 0 mm - - -
1788215814 24.44° C 43% 1014 hPa 0 mm - - -
1788215214 24.44° C 43% 1014 hPa 0 mm - - -
1788214584 24.44° C 43% 1013 hPa 0 mm - - -
1788213954 24.44° C 43% 1014 hPa 0 mm - - -
1788213324 24.44° C 42% 1014 hPa 0 mm - - -
1788212724 24.44° C 42% 1014 hPa 0 mm - - -
1788212124 25° C 42% 1014 hPa 0 mm - - -
1788211494 25° C 41% 1014 hPa 0 mm - - -
1788210894 25° C 40% 1014 hPa 0 mm - - -
1788210294 25° C 40% 1014 hPa 0 mm - - -
1788209664 25.56° C 39% 1014 hPa 0 mm - - -

* Rain latest hour (hover to see other rain measurements)
** Current wind speed in m/s (hover to see current wind gust speed)